Theta_e
320 320 321 321 322 322 322 323 324 324 324 324 324 324 325 325 324 325 325 325 325 325 325 326 326 326 326 326 326 326 325 324 321 317 314 316 327 332 332 336 335 332 328 319 315 313 310 312 311 313 314 314 315 310 318 314 315 312 304 302 300 301 300 304 303 302 304 302 304 304 306 305 302 306 307 307 307 306 307 307 309 311 311 312 313 316 316 315
319 320 320 321 321 322 322 322 323 324 324 324 324 324 324 324 324 324 324 324 325 325 325 326 326 326 326 326 326 326 325 327 318 315 315 328 335 335 334 338 336 332 328 315 313 311 310 310 311 312 312 309 317 310 313 312 314 307 304 303 299 302 303 307 306 304 303 302 304 305 305 305 304 305 307 303 304 305 305 306 308 309 310 312 313 315 313 314
319 320 320 320 321 321 321 322 322 323 323 323 323 324 324 324 324 324 324 324 324 325 324 325 326 326 326 326 325 325 324 322 319 316 318 333 335 338 337 337 333 328 320 314 314 313 311 310 312 311 311 308 312 308 310 310 309 308 304 300 302 306 306 308 307 305 305 305 304 304 305 305 306 306 308 303 303 304 303 303 305 306 307 309 311 314 313 313
319 319 320 320 320 321 321 321 322 323 322 323 323 323 323 323 323 324 324 324 324 324 324 325 325 325 325 325 326 326 328 325 311 311 319 334 338 340 341 336 331 328 321 316 316 314 313 312 312 311 309 306 309 311 307 311 306 308 305 301 302 305 304 306 306 306 307 306 304 304 305 304 306 307 307 304 302 302 304 307 306 306 307 309 310 312 313 312
320 320 320 320 320 320 321 321 322 322 322 322 323 323 322 323 323 323 324 324 324 324 324 324 325 325 325 325 323 325 321 307 307 316 333 335 339 340 337 335 331 321 318 315 314 313 311 310 310 309 308 304 307 308 306 308 311 309 305 306 305 305 302 307 307 307 307 307 304 304 302 303 308 307 305 304 300 300 304 307 308 308 308 309 309 310 312 312
320 319 319 319 319 320 320 321 321 322 322 322 323 323 322 323 323 323 323 323 323 323 324 324 325 325 324 324 325 325 312 295 310 319 332 334 339 339 337 334 330 319 316 313 312 311 310 309 309 305 305 303 303 303 305 307 312 301 304 305 306 307 304 307 307 306 305 305 304 303 305 307 305 304 306 305 304 306 309 309 309 309 310 310 311 311 311 312
320 319 319 319 319 320 320 321 321 321 322 322 323 323 323 323 323 323 323 323 323 324 323 324 324 324 324 323 326 315 308 308 314 332 334 336 339 338 335 331 327 317 314 312 311 310 309 307 307 305 304 303 304 303 305 306 310 304 299 303 304 305 305 307 306 306 305 305 304 306 307 304 304 301 306 304 307 308 311 311 310 311 311 311 310 310 310 310
319 318 318 318 319 319 319 320 321 321 322 323 323 323 323 323 323 323 323 323 323 323 323 323 324 323 323 324 317 311 308 307 315 329 333 337 337 333 328 322 317 316 313 312 311 309 309 306 305 306 303 301 303 304 305 304 306 303 301 304 305 306 306 307 306 305 306 306 307 306 303 303 304 303 305 303 306 308 309 311 311 311 311 310 310 309 310 310
319 318 318 318 319 319 319 320 321 321 322 323 323 323 323 323 323 323 322 323 323 322 322 323 322 323 322 320 312 307 307 316 316 334 336 335 332 326 322 316 317 314 313 313 313 311 309 307 307 307 302 302 306 303 304 301 299 303 304 305 305 305 306 306 305 305 306 306 305 303 302 304 305 306 303 305 306 308 309 309 310 310 309 309 309 309 309 309
319 319 319 320 320 319 320 320 320 321 322 322 323 323 323 323 323 322 322 322 322 322 321 322 323 322 319 315 312 303 317 312 328 334 334 329 324 321 318 319 315 314 312 312 312 311 309 308 308 310 308 305 306 302 304 303 300 303 303 303 302 303 303 304 303 303 304 304 304 301 301 302 305 303 298 306 307 309 308 308 309 308 307 307 308 309 309 309
319 319 319 321 320 320 320 320 320 321 322 322 323 323 323 323 322 322 321 321 322 321 322 321 323 322 319 313 305 304 316 321 326 328 327 324 320 317 316 318 316 314 313 313 311 312 311 310 313 310 306 302 305 303 303 303 304 303 302 301 301 302 303 303 304 303 304 302 304 303 301 302 303 302 300 304 307 308 306 307 307 307 307 307 308 308 311 310
319 319 320 321 320 320 320 320 321 321 322 322 322 322 322 322 322 321 321 321 321 321 321 322 322 322 316 309 305 307 312 326 328 326 324 322 319 317 317 317 316 317 314 311 312 315 315 313 312 307 300 306 300 303 302 305 303 302 301 296 299 301 300 303 302 303 304 302 302 303 299 298 299 298 304 306 307 307 306 306 306 306 306 307 307 308 308 309
319 320 321 320 320 319 320 321 321 321 322 322 322 322 322 322 321 321 321 321 322 321 321 322 321 321 315 305 310 315 320 323 323 321 321 322 317 316 317 317 317 315 314 313 312 316 315 313 311 305 307 305 302 298 301 302 302 302 300 298 297 298 298 303 305 304 302 302 302 301 291 296 300 303 305 308 307 307 305 305 305 306 306 307 307 307 308 309
321 320 319 320 320 319 320 321 322 322 322 323 323 323 322 322 321 321 321 321 321 321 321 321 323 318 312 307 311 314 317 323 320 319 318 319 316 316 315 315 315 314 315 311 312 312 313 311 311 308 309 303 301 306 302 302 302 297 300 300 295 295 295 303 303 301 299 302 301 301 292 296 300 303 306 307 305 305 303 304 304 305 306 306 307 307 307 308
321 319 320 321 320 320 320 321 322 323 323 323 323 323 322 321 320 321 321 322 320 321 321 321 322 316 305 308 309 314 318 316 314 316 318 314 313 312 313 313 313 313 311 311 312 310 311 311 309 304 302 306 305 301 298 298 300 300 295 293 298 295 297 302 304 301 298 300 301 299 293 295 300 303 306 307 305 304 302 303 304 305 305 306 307 306 307 307
320 320 321 321 321 321 321 321 322 322 323 323 322 322 321 319 319 320 320 320 318 320 322 320 315 313 306 305 311 318 314 309 310 314 316 315 315 310 313 312 312 310 310 308 310 309 309 309 304 303 303 303 300 298 296 296 297 299 295 294 294 297 297 299 303 304 304 301 299 299 294 298 299 304 305 306 305 305 304 304 305 305 306 306 306 307 307 308
321 321 321 321 321 321 321 321 321 322 322 322 321 322 319 318 319 318 320 320 321 321 324 313 311 309 302 309 309 308 307 313 310 316 312 314 313 314 310 310 308 308 309 308 309 308 307 304 306 302 303 299 301 300 293 293 293 296 299 295 297 295 297 295 301 304 305 300 297 298 295 296 299 302 303 304 304 304 303 303 304 305 305 306 307 307 307 307
322 322 321 321 321 322 321 321 321 322 322 322 321 320 319 320 319 319 319 320 323 321 318 316 314 309 305 309 304 306 308 308 314 311 313 312 312 311 310 307 308 307 307 305 307 303 304 301 303 298 300 299 298 297 292 289 294 295 296 296 296 299 298 297 297 301 300 300 297 298 297 297 299 302 303 304 305 304 303 303 304 304 305 305 306 306 307 307
322 321 321 322 322 321 321 321 322 322 322 321 324 316 317 317 321 320 314 315 313 312 305 304 304 300 301 306 309 307 311 311 312 312 308 310 311 312 311 310 309 305 303 301 302 303 302 302 302 297 295 297 297 297 295 297 298 296 297 296 296 294 295 296 300 303 302 299 298 298 296 298 300 301 302 303 305 304 303 304 304 304 305 305 305 307 307 308
321 322 322 322 322 321 321 322 323 323 322 321 322 319 317 316 314 310 311 310 307 309 310 311 310 310 311 312 312 311 311 312 308 310 311 310 309 307 307 307 308 305 303 300 301 302 304 297 294 294 297 300 301 301 300 300 300 299 299 297 295 295 296 299 299 302 303 299 297 297 298 298 298 300 301 303 304 303 303 303 303 304 305 305 306 306 307 306
321 321 322 321 321 321 321 322 323 322 321 322 319 317 309 308 305 305 307 310 314 315 312 313 313 312 311 311 311 309 306 305 308 308 310 312 310 307 303 305 302 300 301 303 303 302 301 296 296 299 300 302 302 303 302 301 300 298 297 296 294 296 294 299 299 302 303 298 296 298 297 297 298 300 301 303 302 301 302 303 303 304 305 306 306 306 306 306
321 321 321 321 321 321 322 322 322 322 319 322 319 312 311 309 309 310 307 304 312 314 314 313 314 311 314 311 309 310 309 305 306 308 310 310 306 303 303 302 300 298 303 302 300 297 296 294 298 301 303 303 303 302 300 298 297 297 295 295 294 295 298 300 301 302 300 296 294 297 295 296 298 299 301 302 302 303 304 304 305 305 307 306 306 305 305 306
321 321 321 321 321 322 322 322 321 320 322 320 316 313 311 311 312 312 309 305 303 311 310 310 308 308 308 312 311 310 304 303 303 307 305 309 304 303 304 300 300 300 302 300 297 297 294 298 301 303 303 301 301 301 299 297 297 295 295 293 292 297 295 293 299 297 297 296 294 296 294 295 298 301 302 303 303 304 305 306 306 307 306 305 304 304 304 304
320 320 321 321 321 321 322 322 321 323 320 316 315 312 314 314 313 310 306 302 303 308 310 309 307 306 306 305 308 306 304 305 306 306 309 308 304 306 303 302 300 300 299 300 299 298 297 302 304 303 302 301 298 299 298 296 294 298 297 295 294 295 297 296 296 299 299 299 300 296 295 296 301 299 300 303 304 303 305 306 307 307 307 307 306 305 304 302
320 320 320 320 320 321 321 320 320 321 316 313 315 314 314 314 311 313 305 303 304 303 307 307 307 308 306 311 309 303 306 305 306 306 308 307 306 302 302 305 302 298 300 301 300 298 298 303 303 300 300 300 298 296 297 297 294 296 299 298 297 298 296 297 297 295 293 293 295 294 289 291 298 299 300 302 302 302 305 305 305 304 304 304 303 302 302 303
319 319 319 320 320 321 321 318 320 320 318 316 316 315 314 313 314 311 305 298 295 304 303 301 311 300 310 302 307 305 304 300 304 305 308 307 307 303 302 300 302 298 300 300 299 299 299 301 300 300 299 298 298 296 298 299 294 293 295 300 299 297 296 296 295 294 288 287 295 297 287 286 296 297 300 301 302 302 304 304 302 302 302 301 301 301 301 301
318 318 319 320 320 321 318 315 317 319 316 315 316 315 313 313 314 309 300 296 293 305 301 301 303 303 307 302 304 304 294 297 304 305 305 307 303 307 299 299 299 300 299 300 297 294 299 298 297 298 297 297 296 294 298 298 295 292 298 299 299 297 295 295 295 293 291 296 297 296 293 288 289 296 301 302 300 301 302 300 300 300 299 299 299 300 300 300
315 316 317 319 321 320 319 319 319 316 316 312 312 312 312 310 311 309 299 286 287 306 299 299 303 308 306 302 304 299 296 299 298 300 303 305 304 302 300 299 299 299 298 298 289 301 298 297 297 296 296 295 295 298 303 301 296 297 297 298 296 295 295 295 294 292 292 291 288 293 295 288 289 296 300 300 297 300 298 298 298 299 299 299 299 299 299 299
314 315 317 318 320 320 322 319 317 315 311 309 310 311 311 311 307 301 295 284 303 300 309 299 307 303 302 302 299 299 298 299 296 299 304 304 305 301 297 300 300 299 299 298 294 299 298 299 300 300 297 294 299 299 300 300 295 300 297 297 297 296 296 295 292 291 291 288 285 291 294 287 289 297 296 299 297 296 296 297 298 297 298 298 298 299 298 298
312 313 315 319 319 318 318 318 317 313 312 311 311 311 309 307 304 294 289 281 302 293 300 301 300 298 301 298 298 299 297 298 299 300 302 300 302 303 299 299 298 297 297 298 297 298 299 296 298 298 297 300 298 295 298 300 300 297 298 296 295 296 294 294 293 291 289 284 287 294 294 292 286 295 297 296 297 298 298 298 297 297 298 297 297 296 296 296
311 312 312 315 317 317 318 314 315 311 312 311 310 308 307 305 295 290 283 293 298 299 300 299 297 301 298 297 296 298 299 298 298 300 297 300 299 300 299 297 299 296 295 295 294 297 298 296 295 298 301 299 299 296 295 297 298 297 294 293 292 292 294 291 290 291 284 284 291 295 294 295 285 292 297 298 300 300 299 298 296 295 295 295 295 295 295 295
310 310 311 314 313 316 315 313 313 311 311 311 309 309 306 292 297 286 287 300 289 297 297 298 298 299 297 299 297 298 298 298 299 298 297 297 298 296 296 295 298 290 290 291 293 298 294 295 298 300 298 299 297 295 296 296 296 294 293 292 287 286 288 285 287 282 284 285 289 292 294 290 289 294 299 300 299 297 298 299 297 295 294 294 294 294 294 294
310 309 310 312 314 317 317 314 313 311 311 310 310 308 297 289 281 292 292 297 290 301 296 301 298 296 298 297 298 299 299 296 299 297 300 300 297 299 302 299 301 297 288 294 293 292 294 300 298 298 297 298 299 292 293 291 293 293 290 290 286 283 282 280 284 286 286 288 289 290 293 287 293 296 300 299 296 297 296 297 296 295 294 293 293 294 293 293
309 310 312 310 311 313 314 314 313 313 313 312 311 303 295 284 285 295 296 296 296 298 299 297 296 297 297 295 298 300 296 301 300 298 299 297 297 294 296 301 301 298 296 294 290 290 285 287 294 296 294 299 297 297 298 297 294 293 297 294 289 287 283 278 282 279 282 285 288 289 287 285 286 292 296 295 296 296 296 295 295 294 293 293 293 293 292 292
308 310 310 311 311 313 312 315 314 314 315 313 305 296 286 286 291 291 292 296 300 297 296 297 296 296 296 298 300 300 298 294 301 299 297 296 293 295 294 295 301 299 298 289 294 291 290 290 296 300 297 298 296 300 301 298 295 297 297 297 290 288 293 284 286 286 286 286 286 287 286 291 292 300 299 296 295 294 294 293 293 292 292 292 291 291 291 291
307 308 309 307 308 312 312 316 315 315 314 306 297 289 286 292 290 297 295 301 299 296 296 297 297 293 293 294 299 297 303 295 297 296 295 296 297 294 298 298 298 299 295 289 293 286 290 287 295 298 296 297 297 299 299 300 286 292 292 288 291 298 294 288 288 289 288 286 283 290 288 292 297 297 297 294 292 292 292 292 292 291 291 291 290 290 290 289
305 307 302 306 306 313 314 315 315 314 311 302 294 287 295 296 300 299 302 297 297 298 296 289 291 291 291 290 293 296 296 296 294 294 290 297 293 297 297 299 301 300 299 297 292 298 287 289 298 296 295 296 294 297 298 298 299 295 287 293 296 298 296 290 282 285 284 280 282 288 284 287 287 284 293 293 290 290 291 290 291 291 291 290 289 289 289 289
302 301 302 303 308 310 312 314 315 312 307 299 291 292 300 295 301 300 301 298 297 299 294 292 293 296 290 290 290 293 296 292 293 293 290 294 289 301 297 297 300 299 299 300 293 293 295 286 293 297 298 295 296 296 295 299 299 295 292 298 290 285 284 289 285 277 278 277 280 284 286 286 288 288 292 290 290 289 289 290 290 289 289 289 289 289 289 290
302 302 296 303 309 309 311 314 313 307 301 293 290 289 297 298 301 300 301 300 301 297 292 294 292 294 294 291 292 294 295 289 293 292 288 292 288 297 296 298 296 297 298 299 294 295 296 285 288 296 295 296 296 295 287 292 295 297 296 293 298 291 286 285 286 286 285 278 279 279 284 282 292 291 292 290 290 290 289 289 288 288 289 288 289 288 289 288
297 297 295 307 309 310 312 312 305 302 296 287 290 291 299 296 299 301 301 299 297 295 294 294 296 291 293 293 294 290 294 294 292 291 291 293 291 298 294 301 297 298 297 298 295 298 290 295 283 291 295 296 288 293 289 292 288 290 289 288 291 288 292 291 290 286 282 280 280 279 278 284 291 291 292 290 290 291 290 289 289 288 288 288 287 287 287 287
299 297 296 308 309 310 310 305 298 293 292 294 296 295 297 295 299 299 301 301 299 301 297 295 294 291 293 291 291 294 292 293 293 290 292 292 292 288 296 295 299 296 298 297 295 295 288 289 284 288 288 288 290 299 295 295 295 293 292 288 291 287 284 281 279 290 286 283 280 279 277 286 292 292 291 291 291 291 291 290 289 288 287 287 287 286 285 285
295 288 294 305 309 309 303 292 293 297 295 291 291 295 294 300 297 298 299 300 300 298 301 297 297 296 295 293 293 293 294 292 293 292 293 290 294 293 296 294 298 298 295 291 293 295 293 290 288 285 287 288 292 296 298 298 297 295 293 290 293 290 289 284 277 281 286 285 286 284 281 283 290 290 290 288 287 287 289 289 288 287 287 286 286 285 285 285
293 290 301 304 310 306 299 292 294 293 291 295 299 299 300 298 296 299 297 299 296 299 298 296 295 294 296 295 295 294 295 290 292 291 293 294 294 294 292 294 297 295 296 292 296 291 292 287 285 286 290 293 295 297 296 296 295 292 293 293 289 287 288 286 285 285 281 282 281 281 278 283 290 288 286 285 285 286 286 286 286 286 286 286 285 285 285 285
294 295 297 302 306 306 296 286 287 289 291 295 296 295 300 298 297 295 295 297 296 296 295 295 297 298 294 298 295 292 295 285 292 293 291 294 292 293 293 295 295 289 295 291 291 297 287 287 286 281 282 284 287 292 290 293 293 288 288 290 289 288 289 288 287 286 280 282 283 279 274 281 290 289 287 288 286 286 286 287 287 286 286 286 286 286 286 286
294 296 296 298 301 301 292 294 292 291 291 291 292 292 294 296 299 298 297 295 298 297 296 294 296 297 294 297 295 295 295 292 287 293 294 293 293 294 293 295 295 294 295 295 294 295 288 286 284 278 276 274 274 276 280 283 285 289 288 287 289 288 287 285 281 283 278 283 284 279 279 286 291 289 290 290 288 287 287 286 287 288 287 287 287 287 286 286
289 283 292 293 296 295 295 297 294 294 291 291 290 292 294 291 296 300 299 297 298 297 297 296 297 295 294 293 290 291 292 294 290 289 291 290 291 292 293 293 293 294 292 292 291 294 286 288 286 283 280 278 281 284 288 288 286 282 285 287 287 289 289 288 285 281 277 281 279 281 283 283 285 288 289 291 290 286 286 286 286 286 286 287 287 287 287 287
292 286 289 285 293 293 291 295 293 295 291 294 287 292 289 291 293 294 300 293 297 296 296 295 294 291 291 291 289 290 291 291 293 290 289 291 292 291 292 292 292 291 289 290 292 292 286 283 285 285 284 285 286 285 287 287 284 285 284 284 286 286 286 284 281 278 284 279 274 282 284 281 283 286 288 288 289 287 286 285 285 285 286 286 286 286 288 286
283 288 292 294 290 286 287 288 293 292 294 295 290 293 290 290 290 288 295 297 297 298 291 293 294 294 293 291 290 286 288 288 289 287 291 290 291 290 288 291 290 290 290 290 292 289 284 281 284 285 283 286 286 286 287 285 285 285 284 284 283 284 284 281 281 284 283 278 276 281 283 281 283 286 287 288 286 285 285 284 285 285 285 286 285 285 286 286
291 288 288 293 288 291 291 291 293 291 290 291 291 291 289 289 288 291 291 292 293 292 294 286 288 292 292 293 290 286 288 284 284 288 286 286 286 286 286 287 288 289 290 288 288 288 285 282 284 285 282 283 284 285 286 284 283 283 283 283 284 283 283 283 283 283 283 281 283 282 283 282 284 285 287 285 285 285 285 285 285 284 284 284 283 283 284 284
286 286 285 290 290 288 289 290 290 290 287 291 286 288 289 288 287 290 292 291 287 290 295 289 289 291 289 291 289 286 287 287 286 283 287 284 284 286 284 286 284 285 287 285 287 287 284 279 285 283 279 279 282 284 284 283 281 279 281 282 282 282 282 282 282 282 282 281 282 282 281 280 285 287 285 285 285 285 284 283 283 283 283 283 282 282 283 283
291 292 292 287 284 286 287 287 288 287 286 288 286 288 289 288 287 290 290 290 290 288 288 286 289 286 285 288 288 288 290 286 286 286 287 287 283 288 284 284 288 282 285 282 285 284 285 281 284 281 276 275 280 280 280 280 280 278 278 279 279 279 278 280 279 282 280 278 280 280 278 279 284 282 285 284 283 282 282 282 282 283 283 282 282 282 282 283
292 293 292 289 284 289 284 287 288 287 283 287 288 288 288 288 288 290 285 288 286 288 288 289 289 287 286 286 285 288 289 288 288 289 289 289 289 288 289 288 288 285 284 283 285 283 283 281 278 278 274 274 278 279 277 277 276 273 274 277 280 280 281 281 282 283 282 282 278 275 277 283 282 283 280 281 281 281 281 281 282 282 282 282 282 282 283 283
Wind_Speed
8 8 8 8 8 9 8 8 9 9 9 10 10 10 10 11 11 11 11 11 12 12 12 12 12 12 12 12 11 11 13 6 6 8 8 8 7 8 8 10 12 12 10 7 7 7 7 7 7 6 5 5 3 5 4 4 3 3 5 6 8 7 9 5 6 7 8 9 9 8 4 6 11 6 3 2 9 11 13 14 15 13 14 15 12 5 6 8
7 7 7 7 8 8 8 8 9 9 10 10 10 11 11 11 11 11 11 11 11 12 12 12 12 12 12 11 12 12 10 7 10 10 16 6 9 8 7 10 11 13 11 8 9 8 6 7 7 7 6 6 4 2 4 3 5 6 6 7 9 7 8 6 7 8 10 10 11 11 12 10 11 9 7 9 11 10 14 15 14 14 15 16 16 9 9 8
7 7 7 8 8 8 8 8 9 9 10 10 10 11 11 11 11 11 11 11 11 12 12 12 12 12 12 12 11 12 7 8 10 12 2 6 11 7 8 10 12 12 10 7 7 7 6 4 6 7 6 7 6 4 5 4 5 8 7 9 9 9 11 9 6 11 10 11 12 12 11 10 10 11 7 10 13 11 13 14 13 14 13 11 9 12 12 9
6 7 7 8 8 9 9 9 9 10 10 10 11 11 11 12 11 11 11 11 11 11 12 12 12 11 11 11 11 8 6 9 10 4 4 5 7 9 8 12 12 11 7 5 5 5 2 2 5 8 6 6 3 5 5 5 3 2 7 8 8 9 9 8 8 9 9 9 11 12 12 14 13 10 7 7 12 11 13 15 15 16 14 12 11 12 6 11
6 6 7 8 8 9 9 9 10 11 11 11 11 12 12 12 12 12 12 12 12 11 12 12 12 11 11 11 11 5 6 11 3 3 8 6 7 7 9 11 12 10 7 3 3 4 5 6 6 6 6 7 7 6 10 7 8 4 10 11 13 13 14 9 8 9 6 4 9 12 13 13 10 6 10 12 14 12 10 13 15 18 18 17 16 14 10 8
5 6 7 7 7 9 9 9 10 10 11 11 12 12 13 13 13 13 13 12 13 12 12 12 11 11 11 11 8 3 3 6 3 2 4 6 6 7 9 10 11 9 6 7 7 6 7 6 7 6 6 8 9 8 5 8 7 8 11 13 14 14 14 11 11 2 1 10 11 12 11 12 12 14 13 14 16 16 16 17 19 19 19 18 16 13 11 11
4 5 6 7 7 8 9 10 10 11 11 12 13 13 13 14 13 14 14 14 13 12 12 11 11 11 11 12 4 5 7 10 5 3 7 7 7 8 9 9 7 7 8 8 8 7 9 7 9 8 8 10 11 12 12 6 5 9 13 12 14 10 13 12 13 0 5 10 13 12 13 15 14 19 13 15 15 16 17 19 20 20 19 18 16 13 13 14
4 5 5 6 8 8 9 9 10 11 11 12 13 14 14 14 14 14 14 14 14 13 12 11 9 9 9 4 3 5 7 10 1 4 6 6 8 9 10 8 10 8 10 11 9 9 8 9 9 7 9 10 7 6 4 7 9 11 12 12 12 11 11 12 11 11 10 11 12 12 14 18 15 16 18 22 17 19 18 18 19 18 17 15 14 14 13 14
5 5 6 7 8 9 9 10 10 11 12 13 13 14 14 14 15 15 15 15 14 13 12 10 9 7 4 4 5 7 10 2 4 5 8 7 8 10 10 8 10 10 9 9 9 7 6 8 10 8 8 9 6 9 6 5 11 11 15 14 12 13 11 11 13 13 11 9 8 10 15 17 16 16 21 24 20 19 18 18 18 17 15 13 13 13 13 13
5 5 6 7 6 9 10 10 11 12 13 13 14 14 15 16 16 16 16 15 15 13 11 9 7 7 4 4 5 9 1 1 2 3 5 6 8 8 11 4 11 10 9 9 7 8 9 6 7 4 7 12 13 10 7 9 9 5 8 8 12 14 15 15 16 17 14 14 11 10 14 16 13 8 14 10 8 4 7 10 10 13 15 15 13 11 11 13
4 6 7 7 6 10 11 12 13 13 14 14 14 15 16 16 18 18 17 16 13 11 9 8 2 3 4 3 8 11 3 2 1 4 5 6 8 9 9 3 8 9 10 6 9 9 8 8 2 0 2 8 2 9 7 7 6 9 9 11 16 17 17 18 17 18 11 11 11 13 14 14 15 10 17 16 13 12 11 11 12 13 14 15 16 14 11 12
5 6 8 9 9 11 11 12 13 14 14 14 14 15 16 17 17 17 15 12 10 8 7 5 6 4 4 7 9 6 4 4 1 3 5 6 5 2 4 0 5 7 8 8 7 8 3 4 4 6 6 7 8 6 8 4 7 8 6 10 14 15 15 18 16 17 13 9 4 4 9 13 14 12 20 18 16 13 12 13 14 15 14 15 15 14 13 13
5 7 7 8 10 10 11 12 14 14 14 15 15 15 17 17 17 13 10 9 6 5 3 4 5 4 4 8 8 4 3 3 4 4 4 4 5 3 3 2 1 2 3 5 4 1 1 3 6 10 11 10 10 8 3 4 1 6 10 11 13 13 13 15 10 3 5 5 7 6 8 5 8 13 14 12 9 8 8 11 15 15 15 14 14 13 14 14
5 6 7 8 9 9 10 12 14 15 16 16 17 18 18 17 11 8 7 6 5 3 4 5 4 3 5 10 3 1 2 1 5 5 4 5 5 3 3 2 0 1 2 4 2 2 1 2 5 10 4 5 7 7 8 6 6 9 9 3 8 10 10 8 5 7 6 8 9 8 11 9 12 14 13 9 3 8 11 15 19 18 17 15 13 14 15 17
3 6 8 8 8 8 9 11 14 17 18 18 19 19 18 11 6 6 5 3 3 1 6 3 3 3 5 5 6 3 4 1 4 2 3 5 5 3 4 4 3 1 1 1 1 1 1 3 4 6 7 3 6 10 10 9 8 9 8 9 8 9 7 7 4 10 8 5 9 8 10 9 9 8 8 9 4 5 11 15 19 18 16 16 15 15 16 15
6 8 7 8 9 9 9 11 13 18 19 20 19 18 10 4 3 3 5 4 3 6 4 3 4 3 7 11 2 4 3 4 4 4 0 2 3 4 4 4 3 3 4 2 2 1 3 5 7 4 7 4 8 8 9 8 7 10 12 12 11 11 12 11 7 7 11 2 10 12 12 11 12 11 10 14 18 19 19 20 21 21 20 17 15 13 12 11
9 6 9 7 9 10 9 11 12 14 17 17 20 14 5 3 1 2 2 1 3 2 3 1 4 4 6 2 4 4 2 3 1 3 2 1 2 3 6 5 4 5 4 5 3 5 5 7 3 2 6 9 8 8 7 8 9 9 9 11 10 12 11 10 7 11 2 7 8 13 12 13 15 14 16 17 18 17 16 19 21 19 16 16 14 13 11 10
7 8 9 7 9 11 9 10 12 15 16 17 18 10 5 3 3 4 4 4 1 2 3 3 3 2 9 4 8 2 4 4 2 3 2 2 3 5 5 4 3 6 6 6 4 7 6 6 5 7 6 9 9 8 8 10 8 10 10 12 12 12 11 15 13 5 4 9 11 11 16 16 15 14 14 16 16 17 17 19 18 18 17 17 15 12 11 8
9 8 10 8 8 9 9 9 11 14 16 20 15 3 2 2 4 5 4 3 3 3 4 5 5 6 4 2 2 5 2 4 3 3 4 6 4 3 2 0 6 8 6 5 5 9 5 5 4 6 9 10 11 12 12 14 15 16 15 13 14 14 13 13 13 14 15 17 16 17 16 16 16 14 14 16 17 18 19 18 15 16 17 17 13 9 6 5
10 8 10 8 8 8 9 9 11 15 17 13 7 2 3 3 3 3 5 6 7 9 11 8 8 12 16 15 5 4 2 2 4 2 5 1 7 7 6 6 5 6 6 5 6 7 6 8 8 8 11 13 13 14 16 17 17 17 15 13 15 16 16 14 16 14 13 14 12 13 15 16 16 16 16 18 19 18 17 16 15 16 16 15 10 3 7 5
9 8 9 8 7 8 8 9 10 12 15 9 9 6 3 5 5 4 6 9 13 13 13 13 13 13 14 3 3 1 3 3 3 3 3 3 4 8 6 6 6 6 8 7 4 3 2 9 10 11 14 15 15 14 13 13 13 14 15 15 15 13 16 13 16 12 13 11 11 11 15 16 15 16 19 20 18 17 14 15 15 17 17 6 7 6 5 4
10 9 9 8 7 7 9 8 9 11 14 6 6 4 2 3 3 3 3 7 5 9 12 16 13 13 11 3 5 2 2 7 6 6 3 5 6 7 7 7 7 7 5 6 3 4 7 11 10 15 15 15 15 11 10 11 15 15 13 12 13 12 14 16 17 12 4 1 11 12 16 15 17 21 22 18 14 12 13 13 17 15 8 7 5 5 5 7
10 10 8 7 7 8 8 7 8 9 6 3 2 2 2 2 2 3 3 6 11 10 10 12 12 11 10 8 4 5 9 12 11 8 8 6 7 7 5 6 8 8 6 9 9 8 10 7 15 16 13 13 14 12 10 12 12 10 10 10 12 11 11 11 5 6 4 4 10 13 16 13 17 19 17 10 8 11 10 16 18 6 3 5 6 7 9 11
9 8 7 6 6 7 7 7 8 7 2 3 3 4 2 2 2 2 4 5 7 7 6 2 4 6 6 4 3 4 9 8 8 10 10 9 6 6 8 9 10 10 11 11 14 12 13 10 6 5 9 12 13 11 10 10 11 10 11 10 13 14 13 13 13 14 15 15 11 10 12 11 8 5 5 5 4 7 11 18 6 7 7 8 11 12 13 14
8 7 7 5 5 6 6 8 5 2 2 3 1 2 2 2 2 3 5 6 5 6 4 3 2 3 2 2 3 4 6 3 4 5 5 4 8 5 7 4 6 11 11 11 12 13 14 15 2 3 6 8 8 10 13 11 11 10 11 13 16 15 16 14 15 13 9 8 6 10 11 5 2 1 5 3 6 7 14 14 7 9 10 11 13 13 14 14
6 6 4 4 4 5 6 5 4 1 3 1 4 2 1 1 3 2 4 5 10 1 1 4 3 1 1 3 2 3 1 5 3 2 1 0 6 4 3 5 5 6 4 6 7 6 7 4 1 6 7 7 9 11 13 9 10 9 6 4 6 8 9 12 11 7 6 6 1 4 5 10 4 11 11 11 9 13 14 7 13 12 11 13 13 12 11 13
4 3 2 4 3 4 4 1 2 3 5 3 3 2 1 0 2 4 4 4 8 4 3 3 3 2 2 1 2 3 5 4 3 4 4 2 3 1 6 4 3 4 1 1 2 5 7 5 3 2 6 7 7 9 10 11 9 9 4 4 4 8 8 8 7 6 10 9 13 9 8 10 12 8 9 5 11 15 2 13 13 12 13 14 15 13 12 12
4 2 1 1 3 4 2 3 4 3 3 2 3 2 1 1 1 3 3 6 4 5 4 4 2 2 2 2 2 4 4 2 4 3 2 3 3 5 6 8 4 2 7 4 7 3 4 5 6 6 8 7 9 10 2 6 8 3 2 4 4 4 8 6 5 7 8 10 10 4 9 6 8 5 3 8 12 8 11 12 13 13 13 14 14 14 13 13
6 5 3 2 3 4 0 1 2 2 1 1 1 1 1 2 2 4 5 7 4 2 3 3 1 2 3 1 4 1 3 3 3 3 2 1 3 3 6 7 6 7 3 8 9 3 2 0 6 6 5 7 8 4 2 5 8 3 1 1 2 3 4 6 7 8 8 6 13 5 10 6 11 6 6 5 5 3 12 11 12 15 13 11 11 12 13 13
7 8 7 4 7 2 1 2 2 2 3 2 1 1 1 3 3 4 6 8 5 2 2 3 3 2 4 5 6 7 6 3 1 4 6 3 6 3 1 1 4 4 7 9 13 13 4 2 5 3 7 7 3 4 3 1 2 2 2 6 7 7 7 7 5 6 4 10 11 8 15 8 9 4 4 6 1 5 10 10 12 13 14 14 13 13 12 13
6 8 8 5 2 1 1 2 2 2 3 2 1 2 3 3 4 5 10 2 5 1 1 4 3 2 5 6 3 5 4 4 5 6 5 2 5 6 2 2 2 4 5 6 10 14 10 4 2 5 10 0 2 2 2 0 1 1 4 4 6 8 7 4 4 4 4 10 6 3 10 11 5 3 4 4 7 8 6 8 12 12 13 12 11 10 11 12
5 6 7 4 1 1 1 1 2 2 3 2 0 1 2 5 5 10 4 7 1 2 2 2 2 1 1 1 2 2 1 4 4 3 3 4 3 5 6 5 3 4 6 4 6 5 5 10 10 5 2 8 6 6 3 4 4 4 5 4 5 6 4 7 5 5 7 8 3 1 2 5 13 12 8 5 8 12 10 7 13 14 13 12 12 11 10 10
4 4 3 3 1 2 2 2 3 3 3 1 1 1 2 3 8 8 9 3 3 3 2 4 3 0 1 2 3 2 1 5 5 6 3 2 4 6 7 8 4 5 11 7 10 9 9 3 9 7 0 7 8 7 4 3 7 6 5 4 4 7 7 10 8 7 10 0 3 2 1 9 10 11 12 8 11 11 13 14 13 14 13 12 10 9 10 10
3 3 1 1 1 1 2 2 3 4 2 1 2 2 2 6 6 6 5 8 3 2 4 3 1 1 3 6 3 2 6 4 4 1 2 4 4 8 9 12 9 6 7 9 10 6 12 8 6 9 4 9 11 11 7 7 7 10 7 6 6 8 6 9 6 11 9 9 2 4 3 4 3 4 16 16 11 14 13 13 13 13 12 11 9 10 10 11
1 2 2 1 1 2 3 2 3 3 2 1 2 4 7 11 1 6 7 6 1 2 1 3 3 5 9 7 6 3 4 5 1 3 4 7 9 8 9 9 10 9 4 8 5 5 10 11 1 6 3 9 10 11 2 2 4 3 2 2 4 8 5 12 6 9 8 9 8 4 5 4 5 5 9 13 13 13 12 13 13 12 10 9 9 9 9 9
1 1 1 1 2 1 5 4 4 2 2 4 6 7 14 7 5 6 4 3 0 1 1 0 3 5 9 9 7 8 5 9 1 1 6 9 9 11 8 6 5 11 6 7 3 8 5 8 6 2 3 4 2 2 2 1 4 2 2 4 5 4 4 6 6 6 9 10 15 6 12 13 9 13 6 14 15 12 11 11 11 10 9 8 8 7 7 7
2 1 1 2 3 4 5 4 4 2 2 6 6 12 7 6 11 8 2 3 2 3 2 5 5 6 6 6 4 7 5 2 3 3 7 4 8 13 12 7 2 5 10 6 7 5 8 10 2 5 8 4 3 3 2 1 3 3 4 4 3 1 3 4 11 9 12 15 11 7 12 12 6 8 8 9 13 10 9 10 9 9 7 9 7 7 6 6
2 1 4 5 6 7 6 6 6 4 2 6 12 15 2 8 6 12 5 2 1 3 7 8 8 4 10 11 10 7 7 7 5 8 7 6 7 5 3 4 3 2 5 2 4 2 4 9 8 3 1 4 3 2 4 5 4 7 5 5 4 4 6 7 3 6 10 13 10 11 15 14 14 13 5 9 10 9 8 7 7 8 7 7 6 6 5 5
1 1 4 2 6 8 6 6 5 7 5 9 10 12 9 13 3 6 4 5 1 3 8 10 10 8 12 14 14 7 9 8 7 9 7 6 9 6 6 2 3 2 1 4 3 3 2 6 8 2 2 3 2 3 8 4 3 3 2 5 3 3 6 11 8 7 7 12 10 12 10 11 11 5 7 11 9 9 7 6 6 5 5 4 4 4 4 4
2 1 5 3 4 7 7 7 7 8 9 14 13 13 3 5 9 10 4 6 6 8 10 12 12 14 12 13 11 12 8 12 11 9 10 6 11 4 3 2 2 2 2 1 4 1 7 5 11 4 5 3 6 5 9 10 8 6 5 7 5 3 2 4 5 9 10 12 11 10 11 10 2 5 4 9 8 7 7 6 5 4 3 4 3 3 3 3
2 2 2 3 5 7 9 6 7 12 13 9 10 11 10 8 2 3 7 8 9 6 6 9 9 11 10 10 15 12 10 8 9 9 8 10 10 6 6 2 3 3 1 2 2 2 3 5 11 10 11 9 8 4 7 7 5 7 5 7 8 9 9 10 11 7 6 10 13 12 14 7 3 3 6 5 6 6 5 7 6 5 4 3 2 1 1 1
4 4 2 2 7 12 14 12 9 5 5 13 14 9 7 6 7 5 3 1 6 5 2 4 6 7 5 10 9 7 3 6 9 9 6 11 7 11 3 3 4 3 3 4 3 4 1 2 3 9 10 11 12 7 2 5 6 8 6 11 7 8 7 9 14 9 7 7 3 5 10 4 4 2 6 5 3 3 4 4 5 5 4 4 2 1 3 4
6 6 4 1 8 15 10 8 8 9 12 9 3 4 5 1 3 3 7 6 6 4 4 6 8 8 9 8 7 9 9 6 6 9 5 6 8 3 0 3 2 3 4 0 1 0 4 2 6 11 11 12 14 9 5 1 2 5 4 3 1 3 1 6 7 4 5 5 9 9 11 1 3 1 2 3 3 2 1 3 5 4 4 4 3 3 3 3
5 4 3 2 3 11 11 10 11 13 12 8 9 12 7 8 8 6 7 8 7 6 8 6 4 11 9 7 7 11 8 5 6 11 9 11 5 4 4 3 1 1 2 2 1 3 3 2 7 5 5 4 8 5 3 3 3 1 1 1 2 3 7 7 4 1 7 6 9 8 9 4 2 5 3 5 6 5 5 5 5 5 5 4 3 3 2 2
4 3 3 1 0 6 12 8 9 10 13 15 14 16 14 11 6 11 10 10 9 8 5 7 8 3 5 2 6 6 4 11 5 4 4 3 1 2 4 4 5 2 3 3 3 1 2 4 3 4 6 7 6 9 7 2 2 2 2 5 8 10 11 7 7 5 8 3 7 4 5 2 2 4 7 8 6 5 4 3 3 2 2 2 2 1 0 1
6 5 6 1 3 4 5 4 4 8 12 13 14 15 15 14 11 6 9 14 13 10 11 8 1 1 7 6 5 8 11 8 6 4 3 4 3 1 1 3 4 2 4 3 4 1 1 2 7 9 9 9 9 6 5 3 6 7 8 9 10 11 12 13 10 12 12 8 11 11 13 13 12 15 16 13 8 8 5 5 4 3 2 2 2 2 2 2
4 5 6 6 1 7 6 6 8 9 9 10 10 8 16 17 12 9 9 7 8 13 9 10 9 8 7 10 9 12 12 13 12 12 11 11 4 2 2 3 4 5 3 1 3 1 2 6 9 11 12 13 13 15 15 13 14 13 14 15 15 14 10 11 12 15 10 12 17 8 15 14 15 16 17 16 5 5 3 2 2 1 0 1 2 3 5 5
4 4 3 1 7 8 10 10 11 11 13 8 9 8 12 13 13 12 7 9 6 5 7 4 12 15 12 11 9 8 10 14 11 13 12 8 6 4 3 1 2 1 3 2 2 3 3 9 8 11 7 12 15 17 16 16 14 14 15 16 17 17 16 15 13 14 14 13 17 14 19 21 19 18 17 17 3 1 3 1 1 1 2 2 3 5 5 6
4 4 3 5 3 4 8 2 11 12 14 12 7 12 14 13 12 11 5 3 5 7 9 10 8 11 13 13 10 9 9 8 7 0 1 2 1 1 3 2 1 2 2 2 3 1 2 8 9 10 9 10 15 15 13 14 13 15 15 18 19 20 22 20 19 18 19 19 19 21 23 26 21 23 14 4 4 3 1 1 1 2 3 5 5 5 6 6
4 4 3 2 2 1 1 3 6 11 12 10 10 11 11 13 15 10 2 6 8 6 7 11 12 3 3 4 7 6 2 0 2 2 1 6 1 2 1 3 1 3 2 1 2 3 4 6 5 1 6 8 11 14 13 13 11 15 18 20 21 24 23 18 18 19 19 20 22 24 24 24 13 3 7 3 3 1 1 3 4 4 4 7 7 7 7 7
4 3 5 2 4 4 2 3 5 8 6 7 12 10 12 14 16 15 7 4 6 6 3 2 4 5 1 2 3 5 1 3 1 2 1 0 4 3 2 1 6 2 1 1 2 2 4 7 5 6 10 11 11 11 10 13 13 13 17 22 25 22 19 15 15 12 14 17 18 18 16 15 2 3 4 2 3 4 5 5 5 3 5 7 7 8 8 8
2 2 1 3 4 5 6 4 7 6 9 9 10 11 12 12 2 4 3 3 3 2 2 3 2 2 3 2 5 4 4 5 3 4 3 1 2 1 4 5 5 6 7 6 4 7 6 8 9 9 12 12 13 9 9 1 6 13 18 23 21 20 18 19 18 18 18 18 16 15 12 2 3 4 4 3 3 5 6 7 6 7 6 7 8 9 9 9
Wind_Direction
32 28 25 23 21 18 15 12 8 9 7 6 2 1 1 358 353 351 350 345 342 344 340 337 337 337 337 336 334 332 322 294 275 250 237 253 103 125 104 121 142 154 177 182 158 169 176 187 193 167 202 214 157 235 128 221 235 212 229 246 254 262 265 290 275 299 318 293 302 297 314 291 292 274 176 164 244 239 264 266 272 259 242 248 255 131 144 156
27 24 20 16 15 14 7 5 5 4 3 359 358 354 354 352 349 345 345 342 341 338 340 336 335 337 337 336 332 332 320 280 272 270 257 115 120 132 123 146 145 164 186 190 179 194 196 195 194 183 203 227 127 234 152 188 189 221 254 256 261 269 291 324 288 295 299 296 307 301 298 290 278 295 295 290 280 288 288 273 269 266 252 246 246 214 176 182
18 17 12 11 9 7 3 358 358 359 357 354 352 351 347 344 344 342 338 339 338 337 334 336 334 333 334 334 328 321 310 284 270 272 33 55 120 135 141 146 160 174 193 194 204 216 231 246 185 202 219 257 165 229 192 209 186 232 257 261 261 263 272 273 280 290 288 293 287 296 298 298 283 285 288 262 280 283 271 279 281 275 281 283 251 231 212 206
14 9 3 6 3 360 356 353 352 353 353 349 345 345 342 339 337 338 334 334 333 333 332 329 332 333 328 329 325 311 278 280 282 94 78 120 126 129 147 154 165 186 225 262 224 236 250 271 187 221 239 242 211 230 233 182 219 184 227 246 267 291 302 286 293 282 284 287 291 292 298 289 280 283 265 259 281 264 261 262 268 280 287 292 294 300 271 208
7 4 359 359 359 354 349 347 350 347 345 344 342 338 339 334 332 331 333 328 330 328 328 327 327 328 332 320 317 288 297 287 67 62 102 125 125 134 143 161 170 184 221 193 187 208 214 212 200 225 245 256 236 231 237 228 211 288 242 255 272 281 274 274 281 293 279 308 288 284 284 281 300 269 249 256 257 264 264 279 286 289 293 296 297 299 299 219
360 358 359 355 352 350 344 340 345 342 339 338 337 336 332 331 330 327 328 327 323 325 323 324 323 328 324 321 302 250 288 302 129 131 157 133 139 141 150 158 178 197 201 186 196 188 196 204 210 212 225 241 252 234 250 233 166 253 253 249 253 261 272 287 289 278 234 278 276 281 280 296 284 282 276 268 255 261 266 273 277 282 287 289 293 289 271 250
356 1 359 350 345 344 340 337 338 338 335 334 334 332 329 327 325 326 321 323 319 319 319 319 320 322 322 303 254 265 242 273 262 105 128 153 143 142 141 153 179 200 199 190 198 187 203 214 217 237 249 262 260 261 255 234 189 249 272 280 281 286 270 281 285 123 246 262 265 275 290 279 284 284 287 276 270 273 272 268 272 278 281 286 284 276 265 255
11 357 350 342 340 339 334 333 333 331 332 330 330 330 327 324 323 321 320 315 316 311 316 312 319 317 330 284 240 235 225 248 320 90 88 124 137 132 143 163 182 193 201 206 194 208 203 227 222 243 256 261 290 271 267 250 232 244 259 261 266 268 276 283 280 272 262 253 263 271 272 267 270 278 293 275 274 273 267 270 273 273 277 279 274 271 263 262
349 341 339 330 333 334 331 330 329 330 328 328 327 325 323 320 318 317 313 313 308 308 302 310 303 316 284 282 268 283 258 294 33 99 140 138 141 145 161 163 194 194 208 218 216 232 217 237 246 236 273 273 271 255 245 234 264 246 251 272 289 285 283 278 280 270 254 259 255 257 256 266 271 282 272 272 274 266 262 259 265 277 282 280 275 268 263 261
331 329 328 309 321 330 328 329 328 327 327 327 325 323 321 319 316 314 312 309 305 302 296 292 305 294 284 217 250 259 294 344 80 100 125 134 135 155 193 202 184 203 214 215 224 228 218 261 271 336 288 279 265 257 275 230 260 28 299 299 289 284 288 279 271 270 261 261 257 243 263 273 282 272 273 264 271 305 285 277 266 278 286 288 283 273 264 258
321 324 322 321 334 329 329 329 328 327 326 325 323 321 318 316 315 313 311 308 305 296 295 278 272 257 234 209 251 262 72 285 28 100 133 144 149 170 191 198 193 211 221 215 226 225 246 266 4 222 252 259 10 264 219 245 337 294 306 305 282 279 273 271 267 263 258 262 250 242 259 276 275 250 252 273 273 273 275 278 276 272 276 281 284 281 270 253
319 317 322 327 328 328 327 326 325 325 324 323 321 319 317 314 312 311 308 309 301 296 278 260 162 243 266 248 244 260 0 46 122 118 126 170 154 81 33 269 208 224 230 231 222 235 291 290 241 226 255 59 260 309 243 311 287 289 305 289 284 285 281 271 264 263 249 240 131 215 255 261 257 234 244 248 263 269 272 281 285 282 277 276 278 277 273 261
301 307 315 320 321 322 322 323 324 326 325 323 322 319 317 315 312 309 309 303 297 284 306 214 172 246 246 258 256 58 304 91 104 116 118 98 102 79 52 11 280 299 323 294 300 340 293 259 248 247 254 271 279 285 60 261 234 286 263 264 284 282 272 275 267 230 170 186 145 159 279 267 265 261 260 265 272 276 266 279 291 291 286 280 276 274 272 268
284 312 306 312 319 317 318 326 327 327 327 325 324 324 321 318 315 309 310 305 312 253 147 150 235 222 237 262 85 342 71 107 125 152 135 147 166 102 132 83 147 271 350 277 49 343 240 253 264 254 340 263 265 52 276 255 232 265 286 245 264 286 271 276 216 147 232 138 174 204 267 275 278 277 285 316 40 291 279 289 289 286 283 279 274 268 268 267
282 288 285 306 299 294 295 318 328 327 327 325 326 326 321 319 321 319 337 305 78 98 156 192 234 212 221 254 94 106 284 2 197 141 129 184 195 148 176 147 121 163 103 55 54 47 197 197 221 246 250 236 281 281 271 264 260 264 280 247 235 235 260 268 248 176 255 146 209 185 260 261 267 277 302 302 273 255 273 285 283 280 280 278 275 270 268 271
277 268 277 285 293 299 299 306 316 325 323 324 326 322 317 303 313 347 15 19 95 133 164 203 185 264 303 270 123 124 203 218 154 53 42 319 227 275 114 138 125 135 176 104 97 143 190 181 221 284 261 176 240 247 268 275 252 244 241 265 268 271 282 292 260 273 271 129 194 202 268 287 276 280 295 298 296 293 291 286 283 282 282 282 279 278 279 285
266 276 278 283 291 298 307 312 317 319 318 321 325 320 318 282 208 12 52 137 146 202 234 319 158 197 266 79 116 227 166 106 137 148 112 214 312 159 142 153 171 141 135 126 169 167 158 213 130 251 238 260 251 253 266 252 262 257 241 254 253 271 289 277 303 285 324 176 248 212 244 258 275 287 288 285 284 284 277 273 274 279 284 285 284 284 287 291
281 276 283 291 295 302 308 316 322 321 318 319 317 309 305 212 263 262 202 209 189 221 241 279 250 269 234 145 258 277 78 123 148 109 113 113 251 183 186 186 141 163 152 141 153 206 165 215 181 247 211 224 235 232 229 250 257 286 298 292 287 286 286 292 295 308 231 223 245 265 257 266 274 277 276 279 282 279 271 266 271 283 286 286 282 289 294 297
276 280 288 294 300 304 311 319 321 319 321 317 297 249 226 253 255 253 257 180 213 189 197 169 204 199 329 92 98 119 109 88 105 205 147 151 170 173 173 285 183 165 187 214 166 195 166 226 184 231 234 230 226 220 230 249 267 281 289 291 289 285 280 281 285 287 292 290 288 284 282 288 293 294 285 280 277 272 270 277 287 283 279 275 283 294 317 34
275 282 286 302 303 308 311 314 315 321 326 323 331 258 227 233 200 189 200 222 245 270 301 302 241 279 297 289 299 44 116 213 195 112 118 143 151 170 177 186 153 238 224 226 142 208 167 215 206 207 227 241 247 241 245 259 271 281 283 273 271 272 274 273 269 278 281 286 274 276 281 288 293 288 281 276 269 269 282 290 284 270 267 269 284 40 68 59
275 280 288 300 302 305 306 304 321 321 316 305 298 286 330 6 318 305 351 284 270 267 270 270 261 266 266 349 143 208 311 190 254 136 133 172 222 173 175 173 181 214 217 234 191 88 217 232 231 231 242 253 260 270 282 280 273 277 280 278 276 272 279 275 283 290 289 290 280 283 283 282 287 288 278 267 269 278 282 276 266 262 259 283 76 69 47 34
268 272 281 292 298 298 298 307 322 317 304 275 307 360 59 23 356 354 289 290 268 256 244 249 266 263 259 266 88 333 1 290 228 132 149 222 167 223 155 203 194 243 150 145 152 196 211 230 235 236 243 254 263 272 274 276 276 272 269 275 280 278 281 284 277 273 312 317 279 290 293 291 283 272 270 273 279 272 261 254 256 265 310 81 47 51 18 51
260 267 273 285 286 290 291 313 309 316 314 329 9 358 41 30 340 343 290 274 264 253 243 248 246 248 265 264 235 128 252 242 258 168 167 207 156 247 170 198 224 238 194 196 229 237 250 238 236 240 250 257 259 256 266 268 261 259 261 262 267 285 290 299 314 105 196 212 294 302 295 283 268 266 270 276 265 251 249 251 254 282 69 56 50 47 63 67
260 264 265 270 289 285 303 312 293 271 5 345 356 30 33 353 302 265 250 264 303 256 244 213 279 265 270 285 77 239 220 248 225 232 160 184 208 187 215 222 245 239 234 225 232 244 253 279 33 252 247 249 258 263 258 259 261 253 250 260 272 274 281 292 306 310 312 291 273 289 278 279 262 231 232 188 181 236 255 257 276 94 78 95 86 71 66 66
247 251 248 257 273 297 308 311 278 36 350 253 117 58 41 344 327 290 285 271 211 235 95 180 202 230 121 85 183 214 213 245 209 56 150 246 204 131 234 235 236 243 241 243 255 254 261 268 130 236 222 253 256 259 250 254 272 275 261 257 266 281 292 299 307 317 307 294 95 331 327 312 94 346 223 244 210 235 257 273 102 93 98 93 84 81 75 68
238 246 267 269 279 302 322 292 77 56 280 316 51 92 68 23 314 303 284 278 281 140 229 175 188 135 37 161 148 250 123 202 62 63 353 188 341 276 82 224 209 256 295 244 254 270 285 61 70 242 242 238 243 253 258 258 265 274 281 7 311 301 298 296 301 317 295 303 100 52 309 293 258 275 262 257 268 265 267 52 78 81 83 83 75 69 69 72
68 27 308 267 259 339 291 360 23 280 274 99 79 77 25 6 334 258 272 234 263 131 164 39 227 126 223 87 235 188 215 118 127 129 189 51 242 159 261 192 135 224 284 23 295 240 198 230 124 200 229 232 239 245 243 234 253 264 50 324 322 298 296 305 304 279 271 282 280 247 221 269 294 286 269 202 249 248 255 83 86 91 89 82 84 69 60 65
58 57 13 164 209 180 302 351 324 315 350 26 27 57 69 52 255 235 246 289 281 114 129 163 34 96 277 119 260 275 29 142 172 128 14 70 283 165 231 249 247 229 166 193 244 67 185 178 192 181 197 218 226 237 84 196 225 294 64 21 317 321 306 303 288 284 289 307 295 180 209 255 260 304 128 216 229 250 95 92 92 86 80 85 85 88 82 66
31 24 14 155 144 187 189 252 291 305 47 85 82 69 55 188 250 292 284 271 98 113 344 95 318 202 127 142 207 210 201 170 321 100 134 186 256 318 214 255 287 285 212 214 255 247 178 172 198 202 202 235 237 223 131 189 238 85 84 101 231 252 245 266 271 281 290 293 275 207 189 251 286 300 171 226 287 124 109 106 102 97 87 74 73 74 72 68
24 18 27 103 112 139 166 124 229 84 131 112 121 172 125 234 242 227 221 240 30 211 117 83 211 116 173 197 189 180 213 138 68 127 178 187 151 216 257 77 296 264 248 239 249 257 278 116 19 253 225 257 65 62 8 316 312 88 285 290 273 242 241 230 244 269 276 258 262 239 192 218 294 330 184 180 338 97 127 117 107 101 97 85 67 57 54 56
32 22 20 337 180 53 155 199 102 64 92 100 137 209 255 252 249 259 237 289 341 155 135 166 153 163 203 232 210 156 238 176 158 177 152 191 170 210 231 203 184 253 257 253 247 248 228 171 170 234 243 157 186 127 102 98 59 245 267 286 303 278 219 247 246 214 253 273 311 138 182 216 250 127 71 62 114 54 56 79 99 86 73 70 67 60 59 58
29 27 18 44 354 270 201 56 74 124 96 120 129 270 243 270 223 223 228 109 245 169 202 111 88 268 225 36 280 173 132 175 162 195 228 169 194 192 186 264 166 282 259 236 256 130 224 221 219 198 199 210 191 246 169 161 162 210 239 252 273 292 288 266 179 224 216 265 109 170 161 249 236 244 304 228 48 58 60 77 108 106 93 80 72 69 61 62
34 13 53 41 288 183 68 81 136 125 115 129 42 320 220 226 247 220 247 274 303 14 140 18 42 48 54 284 232 127 64 309 147 207 210 153 283 251 232 228 258 242 280 295 310 298 276 130 191 184 138 210 199 206 178 212 191 198 208 221 253 283 274 270 278 279 277 176 174 115 73 262 273 280 252 248 69 82 85 74 81 90 90 84 76 66 67 57
30 348 20 56 352 317 46 120 132 155 155 200 140 94 131 230 229 30 245 207 236 42 28 39 323 190 255 269 354 26 274 236 236 265 155 265 215 269 253 224 213 225 235 273 268 281 289 268 197 170 213 154 197 219 252 322 160 199 206 207 240 253 264 279 281 276 274 291 56 262 318 232 319 24 68 82 82 83 80 82 77 77 77 76 75 71 62 62
46 39 17 322 290 202 183 159 156 197 302 261 148 195 221 232 186 208 215 233 234 110 95 347 352 333 285 266 273 250 226 306 128 269 232 241 249 244 246 258 193 220 225 269 229 241 247 256 46 141 358 163 187 216 340 2 296 204 242 292 263 243 243 256 273 281 296 303 286 214 203 322 286 83 113 94 85 77 79 81 83 77 76 75 68 60 57 54
153 40 34 256 211 182 163 164 154 177 260 222 198 214 228 211 231 183 249 250 257 265 78 214 140 265 268 274 235 233 131 244 154 243 252 245 255 260 259 256 214 184 198 216 283 290 269 265 100 175 130 233 179 39 175 241 257 90 144 216 245 25 294 287 276 265 279 275 260 267 267 260 267 258 91 95 88 79 76 75 75 77 78 73 69 62 57 52
44 6 275 205 231 150 139 142 154 154 197 236 212 239 229 244 233 262 235 197 228 82 115 253 229 217 260 255 257 179 195 140 241 216 250 228 256 231 239 232 148 205 220 259 275 236 277 277 193 171 233 132 34 12 36 19 313 119 220 273 44 256 309 253 269 271 264 261 265 259 270 276 280 276 122 108 93 86 79 82 78 80 76 70 65 61 59 57
75 276 271 255 198 146 167 165 161 148 233 231 227 239 103 246 205 225 105 130 45 200 239 238 252 259 261 269 267 257 167 202 187 187 253 208 271 78 214 219 76 258 230 91 246 30 8 287 275 283 10 103 115 245 232 192 232 244 286 36 300 246 245 210 225 248 258 255 269 235 256 258 265 261 175 143 112 106 86 74 70 65 61 64 68 62 59 56
174 201 272 224 148 159 161 152 179 169 192 238 240 255 234 241 264 239 210 212 115 222 230 235 258 237 257 261 271 266 173 220 229 236 252 211 242 178 224 53 154 102 110 166 222 285 124 274 278 133 275 125 177 187 262 211 149 313 9 281 209 284 261 269 253 282 274 269 266 263 246 261 249 310 47 106 105 108 110 90 81 76 68 66 58 56 33 33
186 175 243 111 176 142 144 152 169 195 201 224 231 231 271 278 236 226 223 199 217 216 236 257 240 258 251 259 261 265 228 236 248 257 238 266 264 155 113 35 5 110 46 357 284 323 278 243 271 238 119 200 249 201 247 257 246 192 206 236 203 214 20 312 289 253 257 268 256 271 257 257 275 42 81 102 102 107 114 118 122 113 108 93 79 51 36 16
250 240 248 95 151 148 140 151 174 201 213 236 244 245 226 234 152 183 211 209 240 236 278 244 239 236 246 260 256 245 250 236 238 243 247 252 238 249 66 78 359 65 126 128 254 195 261 214 252 274 265 240 257 50 0 355 320 292 262 251 261 273 266 266 261 229 238 244 257 254 258 253 83 29 102 105 121 120 127 131 133 140 130 137 105 100 326 323
187 224 177 81 162 166 150 163 211 201 219 218 227 207 235 216 250 219 165 224 223 222 120 256 257 270 252 249 252 260 251 248 242 248 244 249 239 257 61 345 51 45 344 306 326 21 339 359 290 260 254 268 278 327 10 338 309 288 284 277 288 283 265 251 263 256 276 257 327 261 277 253 44 22 83 101 81 92 111 126 135 147 158 149 155 188 238 243
208 232 57 270 177 175 169 206 200 206 215 237 308 279 217 289 232 236 200 177 215 206 228 217 225 235 235 246 241 249 234 254 220 239 247 242 261 15 340 20 78 64 5 263 103 195 84 240 260 254 264 270 279 279 100 59 175 253 241 53 72 249 348 290 282 336 295 301 281 267 254 230 144 65 116 125 144 142 135 134 149 155 170 162 163 221 235 249
223 211 161 79 242 201 192 198 208 215 226 241 235 241 224 232 223 203 208 208 204 195 212 216 242 227 252 234 240 243 226 265 230 233 244 242 248 99 32 42 7 120 223 267 265 273 260 238 245 272 273 271 260 207 107 73 121 98 188 352 97 258 263 257 256 180 259 210 243 266 259 281 216 194 215 182 192 182 178 180 175 178 174 174 196 210 224 244
225 244 232 245 18 231 216 222 229 209 218 227 228 234 234 232 221 230 222 211 209 227 223 237 243 255 228 189 249 251 242 238 268 254 251 325 180 130 30 25 349 98 25 33 58 152 263 267 319 272 261 260 257 259 270 269 35 339 187 247 252 254 252 251 250 243 261 179 228 234 282 289 98 191 215 223 207 187 166 164 187 151 165 171 191 207 215 314
202 214 172 168 210 275 271 295 308 244 227 223 234 238 240 241 231 193 213 241 232 233 239 252 98 221 239 220 209 220 233 225 221 237 188 213 173 116 92 54 49 83 79 65 28 339 251 229 233 243 253 258 268 292 307 285 278 281 293 290 285 277 275 266 272 267 265 288 284 265 269 283 285 286 275 267 248 161 167 173 176 161 138 187 207 245 247 287
292 237 174 190 109 245 242 231 234 238 235 229 233 224 237 236 245 236 191 239 225 236 238 234 230 232 221 228 238 249 246 249 235 246 243 251 228 118 82 92 82 59 357 356 144 160 227 254 243 245 244 252 262 269 274 278 281 281 281 278 277 273 266 263 251 258 285 295 274 257 270 271 277 283 289 296 318 125 116 87 80 86 191 321 293 273 267 264
218 240 220 168 221 203 210 222 218 228 233 241 248 241 243 240 232 237 208 232 246 230 220 234 228 232 238 233 231 245 244 248 246 244 242 246 255 167 128 155 133 66 158 150 212 219 266 271 272 276 274 274 272 275 280 280 281 281 277 275 274 274 271 259 256 267 270 257 270 287 283 281 281 283 287 293 85 26 110 63 4 304 290 279 289 286 285 282
268 324 309 320 207 237 221 329 215 216 232 233 253 247 248 241 242 238 253 194 215 230 221 240 234 230 235 240 241 249 240 253 240 278 164 88 76 210 236 97 75 120 145 159 190 227 269 261 271 273 277 272 269 269 272 278 280 278 271 270 270 268 265 267 275 275 268 269 275 275 274 274 279 278 289 77 82 95 53 81 290 321 345 344 334 328 318 311
209 243 225 115 279 349 82 150 188 203 224 214 230 234 240 242 245 234 88 241 239 235 226 247 246 221 206 228 223 213 233 4 63 113 29 100 304 193 205 297 167 96 166 200 177 264 253 261 261 314 284 262 263 265 272 279 285 278 277 275 270 266 267 274 278 274 279 272 267 268 271 272 276 74 105 83 101 54 22 328 356 341 355 345 332 330 326 326
263 358 320 289 225 212 119 175 183 195 210 211 225 234 240 235 244 245 244 33 251 228 82 307 125 116 60 152 212 233 217 139 109 117 131 225 258 352 80 272 94 144 154 170 205 256 263 258 293 298 282 275 269 269 282 279 277 272 275 269 262 263 270 267 265 275 269 272 273 275 270 272 63 69 90 117 47 21 345 346 326 330 341 333 325 315 318 321
216 282 324 301 262 200 179 197 210 196 223 218 219 227 233 232 262 123 169 155 57 12 193 145 182 68 252 154 233 289 58 61 59 47 52 9 10 270 270 274 268 262 262 257 281 257 242 263 270 269 268 265 273 292 295 292 287 277 249 248 260 264 261 266 266 267 264 269 269 263 271 17 98 70 59 35 45 340 332 329 328 316 324 325 311 308 306 309